sat.trackr.live / text

‹ back to catalog

GLOBALSTAR M094

NORAD 39074 · 2013-005C

PAYLOAD ACTIVE UNKNOWN

§ Identity

Operator
Country
GLOB
Launch date
2013-02-06
Launch site
TYMSC
Launch vehicle
Mass (kg)
RCS (m²)
4.78

Purposes: comms

External: N2YO · Heavens-Above · Gunter

§ Orbital elements

Epoch: 2026-05-25T04:08:37.476672Z

Period
114.08 min
Inclination
51.9954°
Eccentricity
0.0000204
Mean motion
12.62268166 rev/d
Perigee alt
1,413.4 km
Apogee alt
1,413.8 km
Semi-major
7,791.7 km
B*
6.8550e-5
RAAN
220.8723°
Arg perigee
176.2449°
Mean anomaly
183.8419°
Rev number
61,556

§ Raw data

GLOBALSTAR M0941 39074U 13005C   26145.17265598 -.00000091  00000+0  68550-4 0  99912 39074  51.9954 220.8723 0000204 176.2449 183.8419 12.62268166615568

JSON: /api/v1/satellites/39074 · /tle

For live sub-satellite position, see the globe view (requires WebGL).

§ Visibility from observer

Set your observer location to see the next 7 days of passes ≥ 10°. The values pass through the URL so the page stays shareable.

No JS? Fill the form by hand. The geolocation button needs JavaScript.